When you browse on this site, cookies collect data to enhance your experience and personalize the content and advertising you see.
Visit our Privacy Policy to learn more. By continuing to use the site, you agree to this use of cookies and data.
  • In United Kingdom
  • List of Countries
  • For 7 days
  • Water Temperature
  • Satellite Maps
  • Weather Map
  • Weather Widgets
  • user-avatar
    Login

    Hourly Weather Salawaj

    Today, 22 April, Monday

    Time Temperature Precipitation Wind Pressure Humidity
    00:00 +28°C° 0 mm 1 mps 738 mmHg 83%
    01:00 +25°C° 0 mm 0 mps 738 mmHg 86%
    02:00 +25°C° 0 mm 0 mps 738 mmHg 86%
    03:00 +27°C° 0 mm 1 mps 738 mmHg 86%
    04:00 +27°C° 0 mm 1 mps 738 mmHg 86%
    05:00 +27°C° 0 mm 1 mps 739 mmHg 82%
    06:00 +28°C° 0 mm 1 mps 739 mmHg 78%
    07:00 +28°C° 0 mm 0 mps 740 mmHg 72%
    08:00 +31°C° 0 mm 0 mps 740 mmHg 61%
    09:00 +35°C° 0 mm 0 mps 740 mmHg 50%
    10:00 +38°C° 0 mm 0 mps 740 mmHg 38%
    11:00 +39°C° 0 mm 0 mps 740 mmHg 35%
    12:00 +40°C° 0 mm 0 mps 739 mmHg 32%
    13:00 +41°C° 0 mm 0 mps 739 mmHg 29%
    14:00 +40°C° 0 mm 0 mps 739 mmHg 30%
    15:00 +42°C° 0 mm 1 mps 738 mmHg 31%
    16:00 +41°C° 0 mm 1 mps 738 mmHg 32%
    17:00 +39°C° 0 mm 1 mps 738 mmHg 39%
    18:00 +36°C° 0 mm 1 mps 738 mmHg 47%
    19:00 +33°C° 0 mm 1 mps 738 mmHg 54%
    20:00 +32°C° 0.7 mm 1 mps 739 mmHg 60%
    21:00 +31°C° 0.7 mm 1 mps 739 mmHg 66%
    22:00 +30°C° 0.7 mm 1 mps 739 mmHg 72%
    23:00 +29°C° 0.3 mm 1 mps 739 mmHg 74%

    Tomorrow, 23 April, Tuesday

    Time Temperature Precipitation Wind Pressure Humidity
    00:00 +29°C° 0.3 mm 1 mps 740 mmHg 77%
    01:00 +29°C° 0.3 mm 1 mps 740 mmHg 79%
    02:00 +28°C° 0 mm 1 mps 740 mmHg 79%
    03:00 +28°C° 0 mm 1 mps 739 mmHg 79%
    04:00 +28°C° 0 mm 1 mps 739 mmHg 78%
    05:00 +29°C° 0 mm 1 mps 740 mmHg 75%
    06:00 +30°C° 0 mm 1 mps 740 mmHg 71%
    07:00 +31°C° 0 mm 1 mps 741 mmHg 67%
    08:00 +34°C° 0 mm 1 mps 741 mmHg 57%
    09:00 +37°C° 0 mm 1 mps 741 mmHg 47%
    10:00 +41°C° 0 mm 1 mps 742 mmHg 37%
    11:00 +42°C° 0 mm 1 mps 741 mmHg 34%
    12:00 +43°C° 0 mm 1 mps 741 mmHg 31%
    13:00 +45°C° 0 mm 1 mps 740 mmHg 29%
    14:00 +43°C° 0 mm 1 mps 740 mmHg 31%
    15:00 +42°C° 0 mm 1 mps 739 mmHg 34%
    16:00 +40°C° 0 mm 1 mps 738 mmHg 36%
    17:00 +37°C° 0.1 mm 1 mps 739 mmHg 42%
    18:00 +35°C° 0.1 mm 1 mps 739 mmHg 49%
    19:00 +31°C° 0.1 mm 0 mps 739 mmHg 55%
    20:00 +32°C° 0.1 mm 1 mps 739 mmHg 60%
    21:00 +31°C° 0.1 mm 1 mps 740 mmHg 64%
    22:00 +30°C° 0.1 mm 1 mps 740 mmHg 68%
    23:00 +30°C° 0 mm 1 mps 740 mmHg 69%

    Day after tomorrow, 24 April, Wednesday

    Time Temperature Precipitation Wind Pressure Humidity
    00:00 +29°C° 0 mm 1 mps 740 mmHg 71%
    01:00 +29°C° 0 mm 1 mps 740 mmHg 72%
    02:00 +29°C° 0 mm 1 mps 740 mmHg 72%
    03:00 +28°C° 0 mm 1 mps 740 mmHg 71%
    04:00 +28°C° 0 mm 1 mps 739 mmHg 71%
    05:00 +29°C° 0 mm 1 mps 740 mmHg 68%
    06:00 +30°C° 0 mm 1 mps 740 mmHg 64%
    07:00 +31°C° 0 mm 1 mps 741 mmHg 60%
    08:00 +35°C° 0 mm 1 mps 741 mmHg 50%
    09:00 +39°C° 0 mm 1 mps 741 mmHg 40%
    10:00 +43°C° 0 mm 1 mps 742 mmHg 30%
    11:00 +43°C° 0 mm 1 mps 741 mmHg 28%
    12:00 +44°C° 0 mm 1 mps 740 mmHg 26%
    13:00 +45°C° 0 mm 1 mps 740 mmHg 24%
    14:00 +44°C° 0 mm 1 mps 739 mmHg 26%
    15:00 +43°C° 0 mm 1 mps 738 mmHg 28%
    16:00 +42°C° 0 mm 1 mps 737 mmHg 29%
    17:00 +39°C° 0.2 mm 1 mps 738 mmHg 39%
    18:00 +35°C° 0.2 mm 1 mps 738 mmHg 48%
    19:00 +32°C° 0.2 mm 2 mps 739 mmHg 58%
    20:00 +32°C° 0.4 mm 1 mps 739 mmHg 63%
    21:00 +31°C° 0.4 mm 1 mps 740 mmHg 67%
    22:00 +30°C° 0.4 mm 1 mps 740 mmHg 72%
    23:00 +30°C° 0 mm 1 mps 740 mmHg 72%

    25 April, Thursday

    Time Temperature Precipitation Wind Pressure Humidity
    00:00 +30°C° 0 mm 1 mps 739 mmHg 71%
    01:00 +30°C° 0 mm 1 mps 739 mmHg 71%
    02:00 +29°C° 0 mm 1 mps 739 mmHg 71%
    03:00 +29°C° 0 mm 1 mps 738 mmHg 70%
    04:00 +29°C° 0 mm 1 mps 738 mmHg 70%
    05:00 +29°C° 0 mm 1 mps 739 mmHg 66%
    06:00 +30°C° 0 mm 1 mps 740 mmHg 62%
    07:00 +31°C° 0 mm 1 mps 740 mmHg 58%
    08:00 +33°C° 0 mm 0 mps 741 mmHg 48%
    09:00 +36°C° 0 mm 0 mps 741 mmHg 39%
    10:00 +40°C° 0 mm 0 mps 741 mmHg 30%
    11:00 +43°C° 0 mm 1 mps 740 mmHg 29%
    12:00 +43°C° 0 mm 1 mps 740 mmHg 28%
    13:00 +44°C° 0 mm 1 mps 739 mmHg 27%
    14:00 +42°C° 0.1 mm 1 mps 738 mmHg 33%
    15:00 +40°C° 0.1 mm 1 mps 738 mmHg 38%
    16:00 +39°C° 0.1 mm 1 mps 737 mmHg 43%
    17:00 +36°C° 4 mm 2 mps 737 mmHg 55%
    18:00 +32°C° 4 mm 2 mps 738 mmHg 68%
    19:00 +29°C° 4 mm 3 mps 738 mmHg 81%
    20:00 +29°C° 3.3 mm 2 mps 738 mmHg 84%
    21:00 +28°C° 3.3 mm 2 mps 739 mmHg 88%
    22:00 +28°C° 3.3 mm 1 mps 740 mmHg 92%
    23:00 +28°C° 0.1 mm 1 mps 739 mmHg 91%

    26 April, Friday

    Time Temperature Precipitation Wind Pressure Humidity
    00:00 +27°C° 0.1 mm 1 mps 739 mmHg 90%
    01:00 +27°C° 0.1 mm 1 mps 738 mmHg 89%
    02:00 +27°C° 0 mm 1 mps 738 mmHg 88%
    03:00 +27°C° 0 mm 1 mps 738 mmHg 88%
    04:00 +27°C° 0 mm 1 mps 738 mmHg 88%
    05:00 +28°C° 0 mm 1 mps 739 mmHg 84%
    06:00 +29°C° 0 mm 1 mps 739 mmHg 79%
    07:00 +29°C° 0 mm 1 mps 740 mmHg 75%
    08:00 +31°C° 0 mm 0 mps 740 mmHg 63%
    09:00 +34°C° 0 mm 0 mps 741 mmHg 50%
    10:00 +38°C° 0 mm 0 mps 741 mmHg 37%
    11:00 +39°C° 0 mm 0 mps 740 mmHg 34%
    12:00 +40°C° 0 mm 0 mps 740 mmHg 31%
    13:00 +42°C° 0 mm 0 mps 739 mmHg 28%
    14:00 +40°C° 0 mm 0 mps 738 mmHg 31%
    15:00 +41°C° 0 mm 1 mps 738 mmHg 34%
    16:00 +40°C° 0 mm 1 mps 737 mmHg 37%
    17:00 +36°C° 0 mm 1 mps 738 mmHg 45%
    18:00 +34°C° 0 mm 1 mps 738 mmHg 53%
    19:00 +32°C° 0 mm 1 mps 738 mmHg 61%
    20:00 +31°C° 0 mm 1 mps 739 mmHg 63%
    21:00 +31°C° 0 mm 1 mps 739 mmHg 66%
    22:00 +28°C° 0 mm 0 mps 740 mmHg 69%
    23:00 +28°C° 0.2 mm 0 mps 740 mmHg 71%

    27 April, Saturday

    Time Temperature Precipitation Wind Pressure Humidity
    00:00 +27°C° 0.2 mm 0 mps 740 mmHg 73%
    01:00 +27°C° 0.2 mm 0 mps 740 mmHg 75%
    02:00 +29°C° 0.5 mm 1 mps 740 mmHg 77%
    03:00 +29°C° 0.5 mm 1 mps 739 mmHg 79%
    04:00 +28°C° 0.5 mm 1 mps 739 mmHg 81%
    05:00 +29°C° 0.1 mm 1 mps 740 mmHg 79%
    06:00 +29°C° 0.1 mm 1 mps 741 mmHg 78%
    07:00 +27°C° 0.1 mm 0 mps 741 mmHg 76%
    08:00 +30°C° 0.5 mm 0 mps 742 mmHg 66%
    09:00 +32°C° 0.5 mm 0 mps 742 mmHg 56%
    10:00 +35°C° 0.5 mm 0 mps 742 mmHg 46%
    11:00 +37°C° 0.2 mm 0 mps 741 mmHg 41%
    12:00 +38°C° 0.2 mm 0 mps 740 mmHg 37%
    13:00 +40°C° 0.2 mm 0 mps 740 mmHg 32%
    14:00 +39°C° 0 mm 0 mps 739 mmHg 34%
    15:00 +38°C° 0 mm 0 mps 739 mmHg 35%
    16:00 +40°C° 0 mm 1 mps 739 mmHg 37%
    17:00 +36°C° 0 mm 1 mps 739 mmHg 45%
    18:00 +32°C° 0 mm 0 mps 739 mmHg 53%
    19:00 +30°C° 0 mm 0 mps 739 mmHg 60%
    20:00 +29°C° 0 mm 0 mps 740 mmHg 64%
    21:00 +30°C° 0 mm 1 mps 740 mmHg 67%
    22:00 +30°C° 0 mm 1 mps 741 mmHg 70%
    23:00 +29°C° 0 mm 1 mps 740 mmHg 71%
    Show more